﻿STRMGAGEID,DATE_TIME,AVG_DISCHARGE,STDDEV_DISCHARGE,MIN_DISCHARGE,MAX_DISCHARGE,N_DISCHARGE,TDAILY_DISCHARGE,AVG_TEMP,STDDEV_TEMP,MIN_TEMP,MAX_TEMP,N_TEMP,AVG_COND,STDDEV_COND,MIN_COND,MAX_COND,N_COND
miers_m2,12/6/14,2.3,10.2,0,59.52,52,109719,-0.2,0.3,-0.58,0.21,52,326.9,255.7,23.4,759.48,50
miers_m2,12/7/14,0,0,0,0,49,0,0.4,0.6,-0.36,1.33,96,752.4,193.1,474.88,966.48,96
miers_m2,12/8/14,3.2,8,0,25.73,96,273222,0.7,0.8,-0.15,2.65,96,444.8,118.4,229.78,653.08,96
miers_m2,12/9/14,0,0,0,0,96,0,0.3,0.4,-0.15,1.21,96,228.7,43,157.78,281.18,96
miers_m2,12/10/14,0,0,0,0,96,0,0.6,0.6,-0.3,2.02,96,233.3,53.6,157.88,314.68,96
miers_m2,12/11/14,0,0,0,0,96,0,2.3,1.3,-0.13,4.15,96,234.6,24.2,199.78,303.08,96
miers_m2,12/12/14,0,0,0,0,96,0,1.5,1.1,0.11,3.99,96,292.5,42.2,203.88,342.28,96
miers_m2,12/13/14,0,0,0,0,96,0,1.5,0.6,0.49,2.43,96,269.8,14.6,252.48,291.58,96
miers_m2,12/14/14,0,0,0,0,96,0,1,0.5,0.27,2.24,96,294.7,14.6,264.98,315.38,96
miers_m2,12/15/14,0,0,0,0,96,0,0.8,0.9,-0.1,3.03,96,341.4,33.3,295.88,395.88,96
miers_m2,12/16/14,0,0,0,0,96,0,0.4,0.3,-0.19,1.01,96,370.2,29.4,327.38,412.08,96
miers_m2,12/17/14,0,0,0,0,96,0,1.1,1,-0.03,3.25,96,412.1,16.8,380.78,434.48,96
miers_m2,12/18/14,0,0,0,0,96,0,1.8,1.1,0.31,4.56,96,395.1,22,355.68,419.28,96
miers_m2,12/19/14,0,0,0,0,96,0,3.2,1.4,0.83,5.53,96,285.1,109.8,127.98,418.48,96
miers_m2,12/20/14,0,0,0,0,96,0,2.1,1.7,-0.19,5.24,96,142,8.4,129.48,152.38,96
miers_m2,12/21/14,0,0,0,0,96,0,0.1,0.5,-0.42,1.25,96,130.1,109.3,6.83,263.08,96
miers_m2,12/22/14,0,0,0,0,96,0,0.5,1,-0.4,2.82,96,189.8,24.7,154.98,247.18,96
miers_m2,12/23/14,0,0,0,0,96,0,2.6,2.4,-0.38,7.03,96,190.1,36,131.18,243.58,96
miers_m2,12/24/14,0,0,0,0,96,0,2.3,1.8,0.05,5.34,96,140.2,49,12.57,194.98,96
miers_m2,12/25/14,0,0,0,0,96,0,1.4,1.2,-0.41,5.97,96,124.5,59.4,11.92,182.98,96
miers_m2,12/26/14,0,0,0,0,96,0,0.1,0.7,-0.77,1.82,96,14.5,15.4,5.98,101.08,96
miers_m2,12/27/14,0,0,0,0,96,0,3.4,3,-0.77,7.79,96,70.5,63,5.95,177.68,96
miers_m2,12/28/14,0,0,0,0,96,0,4.1,3.1,-0.43,8.49,96,111.6,32,46.11,187.08,96
miers_m2,12/29/14,0,0,0,0,96,0,2.8,2,-0.44,7.46,96,141.6,25.9,86.88,165.98,96
miers_m2,12/30/14,0,0,0,0,96,0,2.1,2.7,-0.84,6.66,96,101.2,57,9.8,164.08,96
miers_m2,12/31/14,0,0,0,0,96,0,1.1,2.1,-0.69,7.87,96,73.1,46.4,15.19,162.58,96
miers_m2,1/1/15,0,0,0,0,96,0,4.1,3.1,-0.99,8.95,96,92.1,84.7,6.26,189.98,96
miers_m2,1/2/15,0,0,0,0,96,0,3.8,3.6,-0.6,10.31,96,165.2,17.5,89.38,187.98,96
miers_m2,1/3/15,0,0,0,0,96,0,4.5,3.7,-0.32,9.69,96,169.4,7.1,157.38,185.28,96
miers_m2,1/4/15,0,0,0,0,96,0,5.2,2,1.98,7.74,96,180.7,2.7,175.68,185.28,96
miers_m2,1/5/15,0,0,0,0,96,0,4.4,2.3,1.31,8.83,96,179.5,3.5,173.58,184.28,96
miers_m2,1/6/15,0,0,0,0,96,0,5,2.4,1.17,8.86,96,185.3,5.2,176.18,194.08,96
miers_m2,1/7/15,0,0,0,0,96,0,5,1.7,2.17,7.69,96,194.1,4,186.08,199.28,96
miers_m2,1/8/15,0,0,0,0,96,0,1.9,0.9,0.26,3.91,96,209.2,4.8,199.28,217.18,96
miers_m2,1/9/15,0,0,0,0,96,0,1.6,1.6,-0.27,4.25,96,231.4,5.8,216.38,238.98,96
miers_m2,1/10/15,0,0,0,0,96,0,2.2,1.3,0.54,4.57,96,224.6,6.4,215.58,233.08,96
miers_m2,1/11/15,0,0,0,0,96,0,3.4,1.6,0.89,7.44,96,199,14.2,183.08,218.08,96
miers_m2,1/12/15,0,0,0,0,96,0,2.1,1,0.2,4.23,96,176.9,6,171.08,186.28,96
miers_m2,1/13/15,0,0,0,0,96,0,0.9,0.7,-0.05,2.29,96,164.7,8.6,149.18,173.68,96
miers_m2,1/14/15,0,0,0,0,96,0,2.7,1.8,0.14,6.14,96,144.7,4.8,138.38,151.38,96
miers_m2,1/15/15,0,0,0,0,96,0,1.4,1.3,-0.15,3.84,96,140,6.2,130.88,148.38,96
miers_m2,1/16/15,0,0,0,0,96,0,1.7,1.6,0.01,4.72,96,132.7,3.4,127.68,137.98,96
miers_m2,1/17/15,0,0,0,0,96,0,2.3,2.1,-0.2,5.96,96,129.5,3.7,124.88,135.28,96
miers_m2,1/18/15,0,0,0,0,96,0,2.2,2,-0.03,6.54,96,126.8,1.9,123.38,130.58,96
miers_m2,1/19/15,0,0,0,0,96,0,1.9,1.8,-0.01,5.56,96,128.4,3.3,122.88,134.28,96
miers_m2,1/20/15,0,0,0,0,96,0,1.4,1.3,0.03,3.99,96,140.2,6.5,124.88,146.78,96
miers_m2,1/21/15,0,0,0,0,96,0,2.3,1.9,-0.03,5.76,96,143.5,5.3,134.88,153.04,96
miers_m2,1/22/15,0,0,0,0,96,0,2.2,1.8,-0.1,5.01,96,155.5,10.8,143.68,176.28,96
miers_m2,1/23/15,0,0,0,0,96,0,2.8,2.4,-0.2,6.55,96,157.4,11.6,143.97,178.06,96
miers_m2,1/24/15,0,0,0,0,96,0,2.5,2.2,-0.22,6.44,96,149.8,12.4,133.79,176.63,96
miers_m2,1/25/15,0,0,0,0,96,0,2.8,2.2,-0.3,6.81,96,139.1,7.4,128.4,150.46,96
miers_m2,1/26/15,0,0,0,0,96,0,3.6,2.8,-0.38,8.53,96,132.7,6.3,123.58,142.65,96
miers_m2,1/27/15,0,0,0,0,96,0,2.4,2.4,-0.49,6.7,96,134.5,7.9,125.96,150.22,96
miers_m2,1/28/15,0,0,0,0,96,0,2.8,2.6,-0.61,7.03,96,129,5.4,121.89,139.41,96
miers_m2,1/29/15,0,0,0,0,96,0,2.3,2.8,-0.63,7.06,96,129.2,9.9,116.37,146.62,96
miers_m2,1/30/15,0,0,0,0,96,0,1.3,2.1,-0.67,5.73,96,121.1,8.3,110.31,140.42,96
miers_m2,1/31/15,0.9,4.5,0,24.04,96,80037,0.8,1.6,-0.7,4.16,96,118.3,7.6,108.11,134.81,96
miers_m2,2/1/15,0.7,3.8,0,21.77,96,58383,0.3,1,-0.7,2.73,96,121.1,6.6,108.61,131.41,96
miers_m2,2/2/15,0.4,3,0,21.46,96,38142,0.7,1.4,-0.72,4.04,96,128,6.9,120.01,139.91,96
miers_m2,2/3/15,0,0,0,0,96,0,1.2,1.7,-0.62,5.33,96,127.7,6.9,118.51,138.61,96
miers_m2,2/4/15,0,0,0,0,96,0,0.5,1.2,-0.63,2.81,96,128.4,8.1,118.31,143.21,96
miers_m2,2/5/15,0,0,0,0,96,0,0.2,0.7,-0.66,1.71,96,127.1,9.7,116.31,146.11,96
miers_m2,2/6/15,0,0,0,0,96,0,-0.4,0.3,-0.69,0.76,96,132,6.9,120.71,142.51,96
miers_m2,2/7/15,0,0,0,0,96,0,-0.2,0.5,-0.75,0.71,96,159,10,134.41,166.01,96
miers_m2,2/8/15,0,0,0,0,96,0,0.3,0.8,-0.69,1.73,96,166.9,5.2,159.41,174.81,96
miers_m2,2/9/15,0,0,0,0,96,0,0.5,1.1,-0.71,2.89,96,169.8,9.3,153.31,181.61,96
miers_m2,2/10/15,0,0,0,0,96,0,0.4,1,-0.69,2.33,96,172.4,7.7,153.11,181.21,96
miers_m2,2/11/15,0,0,0,0,96,0,0.9,1.3,-0.6,3.24,96,159.6,4.9,149.31,166.11,96
miers_m2,2/12/15,0,0,0,0,96,0,-0.5,0.2,-0.77,-0.04,96,161.9,11.5,123.31,176.91,96
miers_m2,2/13/15,0,0,0,0,52,0,-0.9,0.1,-1.21,-0.77,96,18,31.5,4.62,123.51,96
miers_m2,2/14/15,,,,,0,,-1.1,0.5,-2.12,-0.51,96,12.4,12.1,3.84,45.35,96
miers_m2,2/15/15,,,,,0,,-1.5,1.2,-4.06,-0.3,96,15.4,12.4,3,38.43,96
miers_m2,2/16/15,0,0,0,0,43,0,-0.8,0.6,-1.97,0.36,96,26.1,25.8,3.88,70.32,96
miers_m2,2/17/15,0,0,0,0,96,0,-0.7,0.9,-2.74,0.71,96,30.8,26.2,3.82,79.61,96
miers_m2,2/18/15,0,0,0,0,96,0,-0.7,0.9,-2.45,0.85,96,35.7,34.9,3.36,96.51,96
miers_m2,2/19/15,0,0,0,0,96,0,-1.2,0.7,-2.87,-0.5,96,6.4,3.8,3.68,20.46,96
miers_m2,2/20/15,0,0,0,0,81,0,-1.5,1.2,-3.43,0.13,81,9,9.7,2.82,45.42,81
miers_m2,12/5/15,104.3,140.8,0,655.47,61,5723343,0,0.4,-0.62,1.41,62,271,134,92.07,462.52,62
miers_m2,12/6/15,127.8,27.4,91.09,231.5,96,11044494,-0.1,0.1,-0.18,0.17,96,118.7,13.6,96.25,142.52,96
miers_m2,12/7/15,120.3,22.8,94.34,184.61,96,10397205,1,0.9,-0.18,2.61,96,164.4,11.5,143.02,180.32,96
miers_m2,12/8/15,89.1,16.5,60.65,122.65,96,7696638,0.9,1.1,-0.21,3.18,96,118.2,31.4,78.49,180.32,96
miers_m2,12/9/15,54.4,8.9,32.11,70.16,96,4701186,0.5,0.4,-0.17,1.22,96,44.9,13.1,36.89,95.74,96
miers_m2,12/10/15,76,29.1,43.46,145.99,96,6569019,1.6,1.5,-0.18,4.61,96,44,11.9,36.7,73.34,96
miers_m2,12/11/15,176.7,32.4,143.03,273.98,96,15262929,1.2,0.6,0.24,2.5,96,82.7,20.5,64.34,125.42,96
miers_m2,12/12/15,381.8,141,253.52,773.24,96,32986539,1.1,0.6,0.48,2.33,96,160.4,20.2,126.02,188.42,96
miers_m2,12/13/15,631.3,172.5,385.87,983.83,96,54547560,1.2,0.8,0.25,2.53,96,136.5,8.4,126.12,163.22,96
miers_m2,12/14/15,530.4,212.2,344.22,1128.12,96,45822987,1.9,0.9,0.63,3.85,96,120.7,3.8,112.32,126.92,96
miers_m2,12/15/15,1093.6,182.6,907.86,1658.34,73,71848269,1.6,0.5,0.83,2.72,96,137.8,33.5,97.97,176.56,96
miers_m2,12/16/15,1512.1,83,1366.56,1674.03,39,53074449,1.6,0.4,0.95,2.42,96,168.3,5.2,156.04,176.55,96
miers_m2,12/17/15,1057.2,249.3,779,1646.54,87,82778220,1.9,0.7,0.94,3.23,96,163,1.3,159.89,166.22,96
miers_m2,12/18/15,588,134.6,370.29,869.1,96,50802426,1.6,0.5,0.65,3.17,96,155.5,4.2,149.13,163.17,96
miers_m2,12/19/15,313.1,39,236.57,382.52,96,27049554,1.5,0.6,0.7,2.63,96,142,7.4,128.13,151.99,96
miers_m2,12/20/15,201.4,30.5,145.7,270.65,96,17404866,1.6,1.2,0.41,4.94,96,110.6,6.1,103.88,130.41,96
miers_m2,12/21/15,140.9,15.1,109.86,191.77,96,12171735,2.2,1.4,0.32,5.81,96,102,1.7,99.23,103.97,96
miers_m2,12/22/15,119.2,14.1,87.86,166.25,96,10295667,1.2,0.4,0.53,2.07,96,99.3,0.9,97.25,100.47,96
miers_m2,12/23/15,99.8,12,74.97,136.12,96,8622450,2.8,1.5,0.81,5.06,96,96.3,0.7,95.3,97.32,96
miers_m2,12/24/15,87.2,9.9,69.68,124.25,96,7530975,3.8,2.3,0.58,7.7,96,93.6,1,91.85,95.41,96
miers_m2,12/25/15,68.4,9.5,50.84,84.89,96,5912658,3.8,2.1,0.97,7.1,96,91.8,0.5,90.77,92.45,96
miers_m2,12/26/15,57.2,4.3,48.57,69.03,96,4945239,2.2,0.7,0.78,3.75,96,90.5,0.2,90.16,91.15,96
miers_m2,12/27/15,50.2,9.2,38.62,86.62,96,4339404,1.2,0.6,0.8,2.86,96,91.5,0.9,90.13,94.62,96
miers_m2,12/28/15,40.8,5.6,34.92,67.55,96,3521529,3,1.7,0.89,6.82,96,91.9,0.8,91.05,94.05,96
miers_m2,12/29/15,38.7,1.9,34.81,42.66,96,3345039,3.7,1.6,1.1,6.6,96,90.9,0.1,90.63,91.22,96
miers_m2,12/30/15,42.1,1.9,38.53,49.37,96,3636027,2.3,1.2,0.85,5.53,96,90.1,0.2,89.8,90.72,96
miers_m2,12/31/15,52.6,4.5,37.49,68.44,89,4215204,3.6,2.3,0.86,7.09,96,90.9,0.7,89.24,91.9,96
miers_m2,1/1/16,46.9,1.6,44.18,51.6,96,4054635,2.8,1.7,0.6,6.66,96,89.2,0.5,88.66,90.77,96
miers_m2,1/2/16,41.5,1.1,39.31,44.19,69,2579409,2.7,1.6,0.58,5.48,96,88.3,0.3,87.95,89.21,96
miers_m2,1/3/16,41.8,5.4,35.04,67.87,96,3611601,2,1.3,0.43,4.3,96,88.8,0.3,88.05,89.2,96
miers_m2,1/4/16,45.5,25.9,25.9,142.23,96,3933234,0.6,0.5,0.23,1.92,96,89,0.3,88.2,89.46,96
miers_m2,1/5/16,25.5,10,0,45.14,96,2206926,2.3,2.2,0.23,5.9,96,90.2,1.4,88.13,93.29,96
miers_m2,1/6/16,22,3.3,0,24.74,96,1900350,1.9,1.3,0.11,4.26,96,90.3,0.4,89.26,91.02,96
miers_m2,1/7/16,18.3,7.6,0,22.53,96,1583694,1.6,1.5,-0.02,4.66,96,90.4,0.3,89.45,90.86,96
miers_m2,1/8/16,7,10,0,21.78,96,606879,1.6,2.2,-0.13,8.31,96,90.4,0.3,89.76,91.08,96
miers_m2,1/9/16,5.3,10.1,0,28.49,96,455148,2.1,2.4,-0.28,6.87,96,90.8,1.2,88.6,93.35,96
miers_m2,1/10/16,6.2,9.9,0,26.77,96,532251,1.8,2.1,-0.44,6.18,96,90.3,0.9,87.95,91.6,96
miers_m2,1/11/16,7.6,10.5,0,24.59,96,654516,3,3.1,-0.47,7.44,96,92.6,2.5,89.83,97.6,96
miers_m2,1/12/16,0,0,0,0,96,0,2.9,2.2,-0.61,6.17,96,92.1,0.8,90.53,93.15,96
miers_m2,1/13/16,0.9,4.2,0,21.5,96,75654,4.3,4,-0.72,10.35,96,92.3,1.4,90.34,95.73,96
miers_m2,1/14/16,16.6,12.6,0,34.36,96,1438218,4.2,3.4,-0.73,8.97,96,88.8,1,86.36,90.33,96
miers_m2,1/15/16,42.9,12,32.77,70.73,96,3704562,3.4,2.6,-0.62,7,96,85.5,0.5,84.42,86.27,96
miers_m2,1/16/16,109.5,40.8,72.56,203.17,96,9461592,2.9,1.6,0.46,5.05,96,84.1,0.3,83.55,84.49,96
miers_m2,1/17/16,196.7,12.9,172.1,222.54,96,16996716,2.2,0.8,0.93,3.45,96,83.7,0.3,83.24,84.38,96
miers_m2,1/18/16,183.8,15.6,156.29,219.29,96,15879555,1.5,0.4,0.94,2.72,96,83.1,0.5,82.12,83.9,96
miers_m2,1/19/16,165.4,12.3,141.62,195.21,96,14294196,2.1,0.9,0.78,3.68,96,82.3,0.5,81.28,83.11,96
miers_m2,1/20/16,171.1,17.7,145.29,201.38,96,14780313,2.1,0.7,1.2,3.32,96,81.2,1.4,78.16,83.07,96
miers_m2,1/21/16,148.1,7.4,127.93,165.92,96,12792024,2.4,0.7,1.19,3.67,96,80.9,2,77.16,84.1,96
miers_m2,1/22/16,160.5,24.2,126.65,215.99,96,13863645,2.6,1.3,0.58,4.47,96,80.4,1.1,78.75,82.1,96
miers_m2,1/23/16,235.7,55.4,177.6,368.97,96,20367531,2.9,1.3,0.76,4.63,96,79.8,1.2,77.65,82.58,96
miers_m2,1/24/16,333.4,24.3,292.33,384.33,96,28803636,2.3,0.7,1.26,4.21,96,78.4,2.1,74.54,81.1,96
miers_m2,1/25/16,283.2,23.7,242.8,338.77,96,24465150,2.4,1.2,0.78,4.67,96,77.6,1,75.81,79.54,96
miers_m2,1/26/16,206.3,30.3,161.36,274.55,96,17827326,2.1,0.8,0.88,3.56,96,79.2,1.9,75.55,82.31,96
miers_m2,1/27/16,119.1,20.5,95.75,163.71,96,10294371,2.4,1.4,0.77,5.53,96,76,0.6,75.13,77.34,96
miers_m2,1/28/16,90.9,6.6,78,102.58,96,7852887,2.1,0.9,0.51,4.38,96,76.7,0.9,75.28,78.45,96
miers_m2,1/29/16,74.2,11.6,53.21,99.68,87,5807772,1.2,0.9,-0.13,2.64,96,79.3,2.1,76.26,84.98,96
miers_m2,1/30/16,55.5,10.7,37.67,97.81,96,4795713,1.4,1.3,-0.13,3.83,96,80.2,2.2,76.71,83.74,96
miers_m2,1/31/16,36.6,5.3,28.22,51.81,63,2075571,0.3,0.6,-0.14,1.81,96,80.1,1.6,78.14,85.48,96
miers_m2,2/1/16,56.1,38.2,21.48,139.95,96,4848822,0.4,0.8,-0.11,2.71,96,83.9,2.9,80.39,88.47,96
miers_m2,2/2/16,29.4,5.3,23.91,45.66,96,2536236,1.5,1.6,-0.15,4.97,96,80.5,1.3,78.37,83.06,96
miers_m2,2/3/16,38.4,13.9,0,74.97,81,2796786,0.3,0.4,-0.09,1.56,96,83.4,2.3,80.3,88.56,96
miers_m2,2/4/16,16.2,12.8,0,50.03,96,1398843,1.4,1.9,-0.09,6.69,96,87,2,82.6,89.42,96
miers_m2,2/5/16,25.4,7.3,0,36.96,96,2197845,1.4,1.8,-0.11,5.02,96,86.2,1.6,83.41,89.99,96
miers_m2,2/6/16,35.1,22.1,0,98.52,96,3032136,0.6,0.9,-0.11,2.47,96,86.9,2.4,83.44,92.17,96
miers_m2,2/7/16,55.4,38.8,29.96,198.91,85,4240053,0.7,1,-0.13,3,96,85.8,1.8,83.16,88.79,96
miers_m2,2/8/16,61.1,47.1,27.56,176.91,96,5274927,0.6,0.8,-0.13,1.85,96,82.6,1.1,81.47,84.68,96
miers_m2,2/9/16,43.6,22.8,25.98,94.94,96,3768408,0.8,1.1,-0.11,3.01,96,82.5,1.4,81.03,86.15,96
miers_m2,2/10/16,36.3,18.5,23,96.23,81,2645235,0.4,0.7,-0.12,1.82,96,82.3,1.8,80.12,86.27,96
miers_m2,2/11/16,31.7,11.6,0,57.42,84,2393289,0.4,0.7,-0.13,1.97,96,82.3,1.8,79.46,85.97,96
miers_m2,2/12/16,26.2,9.9,0,63.06,96,2259603,0.3,0.5,-0.11,1.45,96,81,0.9,79.95,82.38,96
miers_m2,2/13/16,20.8,15.5,0,47.43,96,1797399,0.5,0.6,-0.1,1.66,96,80.7,1.2,79.6,83,96
miers_m2,2/14/16,35.5,38,0,138.81,81,2589246,0.1,0.3,-0.11,0.8,96,80,1.2,78.15,81.55,96
miers_m2,2/15/16,17,19.3,0,56.51,96,1467873,0.1,0.3,-0.09,0.9,96,79.5,1.3,77.64,81.28,96
miers_m2,2/16/16,65,63.5,0,154.8,96,5614947,-0.1,0,-0.1,0.02,96,80.7,2,78.24,83.38,96
miers_m2,2/17/16,19.9,19.9,0,60.24,96,1718559,0,0,-0.09,0.13,96,78.7,0.9,77.42,80.25,96
miers_m2,2/18/16,28.3,25.9,0,98.07,96,2442978,0,0,-0.1,0.08,96,78.5,0.9,76.89,79.85,96
miers_m2,2/19/16,35.1,30.8,0,119.26,96,3036555,-0.1,0,-0.1,0.01,96,80.9,1.9,78.33,84.95,96
miers_m2,2/20/16,28.3,43.7,0,151.43,96,2445930,0,0.1,-0.1,0.22,96,84.5,4.7,78.78,96.53,96
miers_m2,2/21/16,14.1,15.9,0,39.74,96,1221363,-0.1,0,-0.09,0.01,96,80.8,1.2,78.34,83.54,96
miers_m2,2/22/16,12.2,19.1,0,51.13,96,1053909,-0.1,0,-0.1,-0.01,96,83.4,3.2,78.59,88.47,96
miers_m2,2/23/16,23.8,39.4,0,110.94,96,2058354,-0.1,0,-0.1,0.01,96,87.8,1.5,85.57,91.54,96
miers_m2,2/24/16,31.8,75.1,0,251.42,96,2743308,-0.1,0,-0.1,-0.07,49,108.4,17.8,91.78,149.04,96
miers_m2,2/25/16,93.1,108.4,0,252.32,66,5528637,-0.1,0,-0.1,-0.01,96,138.3,5.5,124.14,148.44,96
miers_m2,2/26/16,6.8,10.8,0,26.23,69,422343,-0.1,0,-0.11,-0.05,69,117,5.6,108.04,126.94,69
miers_m2,12/15/16,291.2,126,124.64,599.77,92,24109803,1.6,0.6,0.53,2.75,96,122.8,22.5,31.12,157.65,96
miers_m2,12/16/16,590.3,48.2,481.26,718.97,96,51001317,1.4,0.5,0.45,3.03,96,168.1,5.9,155.65,175.65,96
miers_m2,12/17/16,380,131.4,168.01,588.97,96,32828283,0.2,0.2,-0.11,0.62,96,171.4,9.6,144.05,178.55,96
miers_m2,12/18/16,205.6,31.6,139.59,262.34,96,17766765,1.3,1,-0.08,3.01,96,122,7.8,106.15,142.95,96
miers_m2,12/19/16,238,36.8,163.64,307.56,96,20562741,1.9,0.7,0.64,2.99,96,112.9,6.1,107.25,133.05,96
miers_m2,12/20/16,348.9,103.8,247.78,583.27,96,30144114,2,1.1,0.36,3.64,96,161.7,10.4,135.45,175.17,96
miers_m2,12/21/16,516,69.7,412.88,633.74,96,44585676,1.9,0.6,1.07,2.85,96,170,3.6,164,175.36,96
miers_m2,12/22/16,645.6,87.9,528.83,854.99,96,55782585,1.8,0.5,1.06,2.66,96,160.1,3.2,154.17,165.77,96
miers_m2,12/23/16,597.3,158.1,421.17,1086.9,96,51608358,1.8,0.7,0.99,3.26,96,154.1,3,146.59,159.88,96
miers_m2,12/24/16,329.1,55.6,244.63,454.29,96,28436688,1.6,0.7,0.54,3.11,96,150.7,3.2,143.98,156.68,96
miers_m2,12/25/16,247.3,38.9,197.64,337.95,96,21364461,2.3,1.3,0.38,5.21,96,131.5,11.8,111.9,147.1,96
miers_m2,12/26/16,257.9,41.4,199.53,334.8,96,22285764,1.7,0.8,0.56,3.69,96,124.6,7.8,113.47,143.45,96
miers_m2,12/27/16,161.5,30.4,111.68,227.36,96,13955580,1.9,0.9,0.69,3.35,96,110.4,2.2,105.95,114,96
miers_m2,12/28/16,105,12,86.21,130.79,96,9068310,2.3,0.9,0.86,3.74,96,108.5,3.5,103.06,114.21,96
miers_m2,12/29/16,89.5,6.8,76.57,104.07,96,7735626,1.5,0.4,0.78,2.13,96,98.9,2.1,96.26,103.59,96
miers_m2,12/30/16,68,6.3,59.63,78.7,96,5879349,1.2,0.4,0.48,2.12,96,93.6,1.5,91.66,96.32,96
miers_m2,12/31/16,52.6,4.6,46.19,61.57,96,4548402,1.8,0.8,0.64,3.16,96,93.5,4.2,90.22,101.59,96
miers_m2,1/1/17,42.8,2.9,38.14,49.05,96,3695562,2.3,1.9,0.02,5.3,96,93.3,2,91.14,97.65,96
miers_m2,1/2/17,37.4,1.3,33.91,39.62,96,3234897,3.2,2.1,-0.11,6.17,96,92.2,1,90.89,94.53,96
miers_m2,1/3/17,41.2,6.1,33.07,58.02,96,3556989,4.1,2.6,-0.04,9.33,96,90,1.8,86.56,93.68,96
miers_m2,1/4/17,44.9,3.5,37.76,51.49,96,3882609,2.5,0.8,1.18,4.23,96,87.9,1.5,85.92,90.98,96
miers_m2,1/5/17,40.6,4,30.85,47.37,96,3504312,1.6,1,0.36,3.58,96,92.7,9.4,81.83,110.11,96
miers_m2,1/6/17,37.4,4.1,31.49,47.14,96,3232647,3.8,2.7,-0.17,7.87,96,89.2,3.4,83.69,93.91,96
miers_m2,1/7/17,56.3,14.8,41.86,89.49,96,4866615,4.1,2.1,1.36,7.33,96,84,1.4,81.51,89.11,96
miers_m2,1/8/17,87.4,9.8,67.41,112.06,96,7548174,2.3,1.2,0.45,4.79,96,93.8,4.5,88.82,102.93,96
miers_m2,1/9/17,92.9,17.3,72.19,129.53,96,8026371,3.3,2.2,0.26,6.63,96,90.5,4.3,85.95,99.53,96
miers_m2,1/10/17,98.7,14.2,78.27,127.55,96,8531046,2.8,1.1,1.32,5.41,96,88.1,3.9,81.47,93.06,96
miers_m2,1/11/17,112.3,29.4,80.18,176.72,96,9701910,3.3,2,0.34,5.97,96,89.8,6.4,83.89,106.59,96
miers_m2,1/12/17,133.5,24,85.13,179.75,96,11536641,2.3,1.4,0.14,4.61,96,100.8,5.2,92.3,108.91,96
miers_m2,1/13/17,118.8,31.5,78.82,192.35,96,10265373,1,0.4,-0.03,1.75,96,98.5,7.4,85.23,111.11,96
miers_m2,1/14/17,65.1,15.7,42.62,120.26,96,5626107,1.3,1.1,-0.12,3.38,96,95,4.4,86.53,103.54,96
miers_m2,1/15/17,61.2,18.2,40.78,106.88,96,5290830,3.1,2.5,-0.11,6.87,96,96.5,7.4,87.86,111.86,96
miers_m2,1/16/17,122,20.3,98.68,174.23,96,10542960,2.7,1.5,0.39,4.9,96,87.8,1.6,85.49,90.27,96
miers_m2,1/17/17,162.7,8.1,145.95,178.69,96,14056767,1.7,0.5,0.86,2.91,96,85.9,4,83.2,96.11,96
miers_m2,1/18/17,129.8,22.9,93.97,169.74,96,11214603,1.5,0.7,0.51,2.8,96,87.9,2.1,85.52,92.73,96
miers_m2,1/19/17,87.7,11.4,71.53,129.63,96,7575471,1,0.6,-0.03,2.67,96,87.9,1.6,86.14,92.93,96
miers_m2,1/20/17,83.6,17.6,67.11,139.69,96,7222671,1.5,1.3,-0.08,4.99,96,86.5,1.4,84.63,89.99,96
miers_m2,1/21/17,74.9,5.9,62.4,86.61,96,6472584,2,1.6,0.35,5.91,96,84.7,1.1,82.72,86.64,96
miers_m2,1/22/17,70.3,4,60.94,78.94,96,6074712,2.5,2.1,-0.09,5.77,96,83.5,1.4,81.38,85.83,96
miers_m2,1/23/17,85.3,11.3,69.57,119.86,96,7373583,1.6,1.1,-0.06,4.37,96,82.7,1.2,80.75,85.22,96
miers_m2,1/24/17,93.9,9.8,77.85,119.86,75,6337566,0.5,0.5,-0.09,1.27,96,83.7,1.5,81.54,86.76,96
miers_m2,1/25/17,83.8,6.1,66.72,100,63,4751613,1.3,1.5,-0.03,4.57,96,82.1,1.5,80.17,85.87,96
miers_m2,1/26/17,86.7,6,73.28,98.68,77,6007842,2.6,2.2,-0.06,6.16,96,80.9,1.3,79.69,84.71,96
miers_m2,1/27/17,102.8,10.2,82.09,135.65,96,8879256,2,1.5,-0.08,4.48,96,80.3,1.6,77.36,84.14,96
miers_m2,1/28/17,108,7.3,93.28,139.86,96,9330471,1.9,1.6,-0.1,4.58,96,80,0.8,78.73,81.44,96
miers_m2,1/29/17,144,72.6,95.92,366.68,96,12441861,2,1.7,-0.12,4.52,96,79.3,1.7,77.88,83.45,96
miers_m2,1/30/17,97.6,4.1,90.71,117.94,96,8432532,2.4,1.7,-0.08,4.94,96,76.4,1.6,74.25,79.26,96
miers_m2,1/31/17,89.4,4.1,79.99,102.68,96,7719840,2.4,1.5,0.32,4.67,96,73.3,1.5,71.1,76.1,96
miers_m2,2/1/17,128,76.4,77.07,338.9,96,11055996,1.8,1.6,-0.12,4.26,96,73,1.8,70.77,76.98,96
miers_m2,2/2/17,91.6,25,71.41,184.53,96,7917147,2,1.7,-0.1,4.43,96,71.2,1.4,69.39,73.73,96
miers_m2,2/3/17,75.4,4.5,64.66,86.59,96,6515496,2.1,1.6,-0.07,4.48,96,70.6,1.5,68.86,73.32,96
miers_m2,2/4/17,66.5,11.1,43.81,102.5,96,5749695,1.1,1.2,-0.14,3.37,96,71.5,1.3,69.19,73.76,96
miers_m2,2/5/17,54.1,19.5,34,107.9,96,4675707,1.3,1.6,-0.15,4.73,96,71.9,2,68.56,75.95,96
miers_m2,2/6/17,38.7,16.3,24.76,84.43,96,3340692,1.6,1.8,-0.08,5.21,96,75.4,2.9,69.37,80.57,96
miers_m2,2/7/17,41.3,12.8,28.08,76.31,96,3572055,1.1,1.5,-0.14,4.54,96,73.4,1.6,70.7,76.67,96
miers_m2,2/8/17,37.9,16.8,0,71.73,96,3273372,0.7,1,-0.14,2.71,96,74.6,2.5,71.59,80.27,96
miers_m2,2/9/17,26,3.4,21.81,36.96,96,2244582,1.2,1.7,-0.1,5.01,96,72.7,0.7,71.44,74.27,96
miers_m2,2/10/17,32.9,10.5,22.46,78.44,92,2725704,0,0.1,-0.12,0.42,96,69.9,2.2,67.18,74.47,96
miers_m2,2/11/17,41.3,24.2,0,110.31,96,3565449,0.5,0.7,-0.12,1.99,96,71.4,2.6,67.31,75.57,96
miers_m2,2/12/17,39.9,19,25.71,100.13,96,3448179,0.5,0.7,-0.11,2.06,96,72.2,2.7,68.87,77.07,96
miers_m2,2/13/17,36.8,13.8,21.71,72.96,96,3179133,0.2,0.4,-0.14,1.35,96,74.2,2.3,71.38,78.87,96
miers_m2,2/14/17,58.5,49.9,23.45,174,96,5055570,0.4,0.7,-0.12,1.86,96,73.9,3.2,70.84,80.27,96
miers_m2,2/15/17,38.5,27.9,21.57,138.51,96,3323241,0.2,0.5,-0.11,1.41,96,74.6,3.3,70.83,81.17,96
miers_m2,2/16/17,38.4,26.5,23.77,136.56,96,3315780,0.3,0.6,-0.1,1.66,96,73.8,2.5,70.91,79.07,96
miers_m2,2/17/17,32,9.1,23.18,60.27,96,2764260,0.1,0.3,-0.1,0.81,96,73.6,1.8,71.51,77.67,96
miers_m2,2/18/17,37.2,17.2,22.29,83.19,88,2944440,0.2,0.5,-0.09,1.35,88,74.6,3.2,70.83,81.17,88
miers_m2,1/7/18,75,64.7,0,238.9,53,3578733,1.4,0.3,0.51,1.89,56,99.2,16.3,36.81,110.69,56
miers_m2,1/8/18,205.6,40.7,152.72,318.21,96,17764515,1.5,0.4,0.84,2.24,96,110.7,3,105.89,114.99,96
miers_m2,1/9/18,243.4,46.8,169.35,324.21,96,21029211,1.4,0.3,1.08,2.06,96,108.9,3.8,102.89,114.79,96
miers_m2,1/10/18,169.4,23,124.21,227.92,96,14636583,1.5,0.4,0.88,2.83,96,100,1.7,97.99,103.99,96
miers_m2,1/11/18,137.1,11.9,117.18,189.46,96,11847762,1.4,0.4,0.57,2.61,96,100.8,2.2,96.49,103.79,96
miers_m2,1/12/18,110.9,13.9,85.56,137.03,96,9585126,1.5,0.9,0.28,3.08,96,95.9,1.6,93.49,98.59,96
miers_m2,1/13/18,87.5,13.6,63.82,130.4,96,7560720,2.3,1.5,0.31,4.52,96,92.1,1.9,88.99,94.39,96
miers_m2,1/14/18,93,6.7,78.37,104.9,96,8031384,2.1,0.7,0.82,3.33,96,94.8,1.5,92.39,96.89,96
miers_m2,1/15/18,99.7,12.3,79.32,134.93,96,8616555,2.2,1.3,0.09,4.01,96,95.5,2.6,91.29,99.29,96
miers_m2,1/16/18,107.7,11.4,89.86,139.29,96,9305946,1.5,0.5,0.81,2.68,96,94.3,1.9,90.99,96.69,96
miers_m2,1/17/18,81.7,8.4,68.52,107.12,96,7058790,0.7,0.4,0.05,1.43,96,92.2,0.9,90.69,94.19,96
miers_m2,1/18/18,64.9,7.2,52.71,88.67,96,5611248,1.6,1.3,0.02,3.9,96,91.4,1.2,89.79,93.69,96
miers_m2,1/19/18,53.4,7.1,40.58,66.72,96,4614453,1.3,1.1,0.02,3.96,96,86.8,3.8,81.98,91.19,96
miers_m2,1/20/18,45.8,6.7,28.02,62.43,96,3958056,2,2.1,0.02,5.76,96,87,2.6,83.95,93.49,96
miers_m2,1/21/18,47.6,5.6,32.94,64.96,96,4111137,0.9,0.9,0,2.83,96,86.7,1.2,84.54,89.19,96
miers_m2,1/22/18,37.5,4.6,27.82,47.93,96,3238344,0.5,0.4,0.02,1.14,96,88.7,2.1,86.07,92.49,96
miers_m2,1/23/18,35.8,4,30.44,53.42,96,3096090,1.9,1.7,0.01,5.2,96,89.1,2.1,86.82,93.79,96
miers_m2,1/24/18,29.7,4.5,22.19,44.55,96,2569815,1.3,1.4,0.01,3.75,96,89.9,3.6,85.68,98.89,96
miers_m2,1/25/18,29,4.9,21.66,40.17,96,2506968,0.2,0.3,0.02,1.18,96,92.1,4,86.42,99.19,96
miers_m2,1/26/18,31.3,3.8,22.36,41.48,96,2701548,1.9,2,0.03,5.4,96,87.8,3.4,80.72,93.99,96
miers_m2,1/27/18,31,3.8,22.43,40.58,96,2681352,0.3,0.4,0.02,1.4,96,90.3,1.2,88.19,92.39,96
miers_m2,1/28/18,39.1,6.7,24,56.7,96,3378465,0.5,0.6,0.02,1.79,96,87,2.2,84.55,91.19,96
miers_m2,1/29/18,36.4,7.3,24.29,64.4,96,3143196,0.5,0.7,0.02,1.96,96,86.5,2.4,83.4,90.49,96
miers_m2,1/30/18,34.5,7.9,26.45,57.51,96,2982204,0.7,0.8,0.03,2.3,96,84.9,1.9,81.45,88.59,96
miers_m2,1/31/18,31.1,4.7,24.79,45.57,96,2690361,0.6,0.6,0.01,1.77,96,84.9,1.6,81.71,88.09,96
miers_m2,2/1/18,31.8,5.5,20.99,46.31,96,2749266,0.2,0.2,0.03,0.66,96,86.1,1.2,84.28,88.49,96
miers_m2,2/2/18,29.3,4.2,21.84,43.11,96,2534841,0.1,0,0.03,0.1,96,86.1,1.7,84.33,89.19,96
miers_m2,2/3/18,32.3,4.1,22.71,44.96,96,2787615,0.2,0.3,0.01,1.25,96,83.6,1.9,80.45,86.43,96
miers_m2,2/4/18,35.2,19.3,0,99.41,96,3044808,0.4,0.3,0.01,0.96,96,83.9,4.5,76.84,90.09,96
miers_m2,2/5/18,27.5,13.1,0,68.87,96,2377818,0.3,0.2,0.02,0.71,96,83.3,3.3,78.72,89.79,96
miers_m2,2/6/18,33,27.3,0,108.13,96,2849328,0.4,0.4,0.04,1.16,96,83.3,6,75.04,93.29,96
miers_m2,2/7/18,30.4,22,0,116.72,96,2627172,0.1,0.1,0.03,0.25,96,87.7,2.5,84.93,93.79,96
miers_m2,2/8/18,35,22,0,93.02,96,3027321,0.2,0.2,0.03,0.77,96,84.6,5.3,76.65,92.69,96
miers_m2,2/9/18,36.9,27.5,21.64,132.62,96,3187548,0.2,0.1,0.03,0.47,96,84.1,6.1,75.33,93.89,96
miers_m2,2/10/18,44.5,40.4,0,173.49,96,3843180,0.1,0.1,0.01,0.33,96,86.3,7.5,76.25,98.19,96